This demonstration page uses our WeatherBlox Daily Observations layout. Learn more.

Left ArrowRight Arrow

53.62937, 11.41316

Hourly Observations for September 4, 2015

Temp ( °F °C ) Dew Point ( °F °C ) Humidity (%) Winds ( mph kmh ) Pressure ( in mb ) Visibility ( mi km ) Precip ( " mm )
6:20 am 06:20 Mostly Clear 45 7 45 7 100 100 VRB 1 2 29.88 1012 7 11 N/A
6:50 am 06:50 Mostly Sunny 45 7 45 7 100 100 VRB 1 2 29.88 1012 7 11 N/A
7:20 am 07:20 Mostly Sunny 48 9 46 8 94 94 E 3 6 29.88 1012 7 11 N/A
7:50 am 07:50 Mostly Sunny 50 10 50 10 100 100 E 1 2 29.88 1012 7 11 N/A
8:20 am 08:20 Mostly Sunny 52 11 52 11 100 100 VRB 2 4 29.91 1013 7 11 N/A
8:50 am 08:50 Mostly Sunny 54 12 52 11 94 94 SW 6 9 29.91 1013 7 11 N/A
9:20 am 09:20 Mostly Sunny 54 12 50 10 88 88 SW 6 9 29.91 1013 7 11 N/A
9:50 am 09:50 Mostly Sunny 54 12 50 10 88 88 SW 6 9 29.91 1013 7 11 N/A
10:20 am 10:20 Mostly Sunny 55 13 50 10 82 82 SW 9 15 29.91 1013 7 11 N/A
10:50 am 10:50 Mostly Sunny 57 14 50 10 77 77 SW 7 11 29.91 1013 7 11 N/A
11:20 am 11:20 Mostly Sunny 57 14 50 10 77 77 SSW 8 13 29.91 1013 7 11 N/A
11:50 am 11:50 Mostly Sunny 59 15 50 10 72 72 SW 9 15 29.91 1013 7 11 N/A
12:20 pm 12:20 Mostly Sunny 61 16 46 8 59 59 SSW 12 19 29.88 1012 7 11 N/A
12:50 pm 12:50 Mostly Cloudy 63 17 46 8 56 56 SW 12 19 29.88 1012 30 48 N/A
1:20 pm 13:20 Mostly Sunny 61 16 46 8 59 59 S 14 22 29.88 1012 30 48 N/A
1:50 pm 13:50 Mostly Sunny 61 16 46 8 59 59 SSW 12 19 29.88 1012 7 11 N/A
2:20 pm 14:20 Mostly Sunny 61 16 48 9 63 63 SSW 13 20 29.88 1012 7 11 N/A
2:50 pm 14:50 Mostly Sunny 64 18 48 9 56 56 SW 12 19 29.88 1012 7 11 N/A
3:20 pm 15:20 Mostly Sunny 64 18 46 8 52 52 SW 15 24 29.85 1011 7 11 N/A
3:50 pm 15:50 Mostly Sunny 63 17 46 8 56 56 SW 15 24 29.85 1011 7 11 N/A
4:20 pm 16:20 Mostly Sunny 63 17 46 8 56 56 SW 12 19 29.85 1011 7 11 N/A
4:50 pm 16:50 Mostly Sunny 63 17 46 8 56 56 SW 13 20 29.85 1011 7 11 N/A
5:20 pm 17:20 Mostly Sunny 63 17 48 9 59 59 SW 13 20 29.83 1010 7 11 N/A
5:50 pm 17:50 Mostly Sunny 63 17 46 8 56 56 SW 10 17 29.83 1010 7 11 N/A
6:20 pm 18:20 Mostly Sunny 63 17 46 8 56 56 SSW 9 15 29.83 1010 7 11 N/A
6:50 pm 18:50 Mostly Sunny 61 16 46 8 59 59 SSW 9 15 29.83 1010 7 11 N/A

Powered by AerisWeather